Fremont, NE

4:03 PM CST on February 06, 2016 (GMT -0600)
Fremont Municipal

Weather History for KFET - November, 2013

Change the Weather History Date:

Thursday, November 21, 2013

  Actual Average Record
Temperature  
Mean Temperature 28 °F -  
Max Temperature 36 °F 45 °F 72 °F (2012)
Min Temperature 21 °F 24 °F 2 °F (1964)
Degree Days  
Heating Degree Days 36    
Moisture  
Dew Point 23 °F    
Average Humidity 82    
Maximum Humidity 100    
Minimum Humidity 68    
Precipitation  
Precipitation 0.00 in - - ()
Sea Level Pressure  
Sea Level Pressure 30.30 in    
Wind  
Wind Speed 15 mph (NNW)    
Max Wind Speed 24 mph    
Max Gust Speed 29 mph    
Visibility 9 miles    
Events Snow    
Averages and records for this station are not official NWS values.
T = Trace of Precipitation, MM = Missing Value Source: NWS Daily Summary

Daily Weather History Graph

Daily Weather History Graph

Search for Another Location

Airport or City:

Trip Planner

Search our weather history database for the weather conditions in past years. The results will help you decide how hot, cold, wet, or windy it might be!

Date:

Astronomy

Nov. 21, 2013 Rise Set
Actual Time 7:22 AM CST 5:01 PM CST
Civil Twilight 6:51 AM CST 5:31 PM CST
Nautical Twilight 6:18 AM CST 6:05 PM CST
Astronomical Twilight 5:45 AM CST 6:38 PM CST
Moon 8:39 PM CST (11/21) 10:28 AM CST (11/21)
Length of Visible Light 10h 39m
Length of Day
9h 39m
Waning Gibbous, 85% of the Moon is Illuminated
Nov 21
Waning Gibbous
Nov 25
Last Quarter
Dec 2
New
Dec 9
First Quarter
Dec 17
Full

Hourly Weather History & Observations

Time (CST) Temp. Windchill Dew Point Humidity Pressure Visibility Wind Dir Wind Speed Gust Speed Precip Events Conditions
12:15 AM 34.7 °F 28.8 °F 34.7 °F 100% 29.97 in 10.0 mi NNW 6.9 mph - N/A   Clear
12:35 AM 35.8 °F 30.1 °F 35.8 °F 100% 29.98 in 10.0 mi NNW 6.9 mph - N/A   Clear
12:55 AM 36.1 °F 28.7 °F 35.8 °F 99% 29.99 in 10.0 mi NNW 10.4 mph - N/A   Clear
1:15 AM 36.1 °F 27.3 °F 34.9 °F 95% 30.01 in 10.0 mi NNW 13.8 mph 18.4 mph N/A   Clear
1:35 AM 35.6 °F 25.5 °F 33.8 °F 93% 30.02 in 10.0 mi NNW 17.3 mph 21.9 mph N/A   Clear
1:55 AM 34.7 °F 24.3 °F 32.2 °F 91% 30.04 in 10.0 mi NNW 17.3 mph 27.6 mph N/A   Clear
2:15 AM 34.0 °F 23.4 °F 32.0 °F 92% 30.04 in 10.0 mi NNW 17.3 mph 27.6 mph N/A   Clear
2:35 AM 33.8 °F 22.8 °F 32.0 °F 93% 30.05 in 10.0 mi NNW 18.4 mph 23.0 mph N/A   Mostly Cloudy
2:55 AM 34.0 °F 23.4 °F 32.0 °F 92% 30.06 in 10.0 mi NNW 17.3 mph 24.2 mph N/A   Overcast
3:15 AM 33.8 °F 22.5 °F 32.0 °F 93% 30.08 in 10.0 mi NNW 19.6 mph 27.6 mph N/A   Overcast
3:35 AM 33.8 °F 23.9 °F 32.0 °F 93% 30.07 in 7.0 mi NNW 15.0 mph 24.2 mph N/A   Overcast
3:55 AM 33.8 °F 23.5 °F 32.0 °F 93% 30.09 in 7.0 mi NNW 16.1 mph 23.0 mph N/A   Overcast
4:15 AM 33.1 °F 23.4 °F 30.9 °F 92% 30.10 in 10.0 mi NNW 13.8 mph 21.9 mph N/A   Overcast
4:35 AM 32.9 °F 23.2 °F 30.2 °F 90% 30.11 in 10.0 mi NNW 13.8 mph 23.0 mph N/A   Overcast
4:55 AM 32.9 °F 23.7 °F 30.9 °F 92% 30.13 in 10.0 mi NNW 12.7 mph 21.9 mph N/A   Overcast
5:15 AM 32.2 °F 20.0 °F 28.9 °F 88% 30.15 in 10.0 mi NNW 20.7 mph 26.5 mph N/A   Overcast
5:35 AM 31.5 °F 19.4 °F 26.6 °F 82% 30.16 in 10.0 mi NNW 19.6 mph 27.6 mph N/A   Overcast
5:55 AM 31.1 °F 20.5 °F 26.4 °F 83% 30.17 in 10.0 mi NNW 15.0 mph 28.8 mph N/A   Overcast
6:15 AM 31.1 °F 20.1 °F 26.1 °F 82% 30.19 in 10.0 mi NNW 16.1 mph 28.8 mph N/A   Overcast
6:35 AM 30.6 °F 19.4 °F 25.3 °F 81% 30.19 in 10.0 mi NNW 16.1 mph 26.5 mph N/A   Overcast
6:55 AM 29.8 °F 17.7 °F 24.1 °F 79% 30.21 in 10.0 mi NNW 18.4 mph 27.6 mph N/A   Overcast
7:15 AM 29.7 °F 17.4 °F 24.1 °F 80% 30.23 in 10.0 mi NNW 18.4 mph 27.6 mph N/A   Overcast
7:35 AM 29.1 °F 17.9 °F 23.7 °F 80% 30.24 in 10.0 mi NNW 15.0 mph 24.2 mph N/A   Overcast
7:55 AM 28.9 °F 16.5 °F 23.2 °F 79% 30.26 in 10.0 mi NNW 18.4 mph 26.5 mph N/A   Overcast
8:15 AM 28.4 °F 15.8 °F 23.0 °F 80% 30.26 in 10.0 mi NNW 18.4 mph 27.6 mph N/A   Overcast
8:35 AM 28.2 °F 16.8 °F 22.5 °F 79% 30.28 in 10.0 mi NNW 15.0 mph 25.3 mph N/A   Overcast
8:55 AM 28.2 °F 15.5 °F 21.9 °F 77% 30.27 in 10.0 mi NNW 18.4 mph 27.6 mph N/A   Overcast
9:15 AM 28.0 °F 15.7 °F 21.4 °F 76% 30.28 in 10.0 mi NNW 17.3 mph 26.5 mph N/A   Overcast
9:35 AM 28.0 °F 15.3 °F 20.8 °F 74% 30.28 in 10.0 mi NNW 18.4 mph 24.2 mph N/A   Mostly Cloudy
9:55 AM 27.9 °F 15.1 °F 20.5 °F 74% 30.29 in 10.0 mi NNW 18.4 mph 28.8 mph N/A   Mostly Cloudy
10:15 AM 27.7 °F 15.6 °F 20.5 °F 74% 30.30 in 10.0 mi NNW 16.1 mph 25.3 mph N/A   Mostly Cloudy
10:35 AM 27.5 °F 16.3 °F 20.3 °F 74% 30.30 in 10.0 mi North 13.8 mph 24.2 mph N/A   Mostly Cloudy
10:55 AM 27.5 °F 16.3 °F 20.3 °F 74% 30.31 in 10.0 mi North 13.8 mph 25.3 mph N/A   Mostly Cloudy
11:15 AM 27.3 °F 15.6 °F 19.8 °F 73% 30.31 in 10.0 mi North 15.0 mph 24.2 mph N/A   Mostly Cloudy
11:35 AM 27.5 °F 18.0 °F 19.8 °F 73% 30.31 in 10.0 mi NNW 10.4 mph 21.9 mph N/A   Mostly Cloudy
11:55 AM 27.0 °F 15.2 °F 19.0 °F 72% 30.32 in 10.0 mi NNW 15.0 mph 25.3 mph N/A   Overcast
12:15 PM 27.0 °F 13.9 °F 18.9 °F 72% 30.32 in 10.0 mi NNW 18.4 mph 25.3 mph N/A   Mostly Cloudy
12:35 PM 27.3 °F 17.1 °F 19.2 °F 72% 30.32 in 10.0 mi NNW 11.5 mph 24.2 mph N/A   Mostly Cloudy
12:55 PM 27.5 °F 16.8 °F 19.2 °F 71% 30.33 in 10.0 mi NNW 12.7 mph 20.7 mph N/A   Mostly Cloudy
1:15 PM 27.9 °F 15.9 °F 18.7 °F 68% 30.33 in 10.0 mi North 16.1 mph 21.9 mph N/A   Mostly Cloudy
1:35 PM 27.5 °F 15.4 °F 18.5 °F 69% 30.33 in 10.0 mi NNW 16.1 mph 25.3 mph N/A   Overcast
1:55 PM 27.3 °F 15.6 °F 18.3 °F 69% 30.33 in 10.0 mi NNW 15.0 mph 24.2 mph N/A   Overcast
2:15 PM 27.5 °F 15.0 °F 18.5 °F 69% 30.33 in 10.0 mi NNW 17.3 mph 23.0 mph N/A   Overcast
2:35 PM 27.1 °F 14.1 °F 18.1 °F 69% 30.33 in 10.0 mi NNW 18.4 mph 26.5 mph N/A   Mostly Cloudy
2:55 PM 27.0 °F 14.7 °F 18.0 °F 69% 30.34 in 10.0 mi NNW 16.1 mph 27.6 mph N/A   Overcast
3:15 PM 27.3 °F 15.2 °F 18.5 °F 69% 30.34 in 10.0 mi North 16.1 mph 25.3 mph N/A   Overcast
3:35 PM 27.3 °F 15.6 °F 18.5 °F 69% 30.35 in 10.0 mi North 15.0 mph 25.3 mph N/A   Overcast
3:55 PM 27.3 °F 14.8 °F 18.5 °F 69% 30.36 in 10.0 mi NNW 17.3 mph 24.2 mph N/A   Overcast
4:15 PM 27.5 °F 15.0 °F 19.0 °F 71% 30.38 in 10.0 mi North 17.3 mph 26.5 mph N/A   Overcast
4:35 PM 27.5 °F 17.4 °F 19.4 °F 72% 30.39 in 10.0 mi North 11.5 mph 21.9 mph N/A   Overcast
4:55 PM 27.5 °F 16.3 °F 18.9 °F 70% 30.39 in 10.0 mi NNW 13.8 mph 26.5 mph N/A   Overcast
5:15 PM 26.6 °F 13.8 °F 18.5 °F 71% 30.40 in 10.0 mi NNW 17.3 mph 27.6 mph N/A   Overcast
5:35 PM 26.1 °F 11.6 °F 19.0 °F 75% 30.41 in 10.0 mi NW 21.9 mph 27.6 mph N/A   Overcast
5:55 PM 25.3 °F 10.3 °F 19.2 °F 78% 30.43 in 10.0 mi NNW 23.0 mph 27.6 mph N/A   Overcast
6:15 PM 24.8 °F 9.3 °F 19.2 °F 79% 30.43 in 10.0 mi NW 24.2 mph 28.8 mph N/A   Mostly Cloudy
6:35 PM 24.6 °F 10.1 °F 19.4 °F 81% 30.44 in 10.0 mi NNW 20.7 mph 27.6 mph N/A   Mostly Cloudy
6:55 PM 24.4 °F 9.9 °F 19.6 °F 82% 30.45 in 10.0 mi NNW 20.7 mph 25.3 mph N/A Snow Light Snow
7:15 PM 23.9 °F 9.9 °F 20.3 °F 86% 30.46 in 4.0 mi NNW 18.4 mph 27.6 mph N/A Snow Light Snow
7:35 PM 23.7 °F 10.1 °F 20.8 °F 89% 30.46 in 4.0 mi NNW 17.3 mph 25.3 mph N/A Snow Light Snow
7:55 PM 23.2 °F 9.0 °F 21.0 °F 91% 30.48 in 3.0 mi NNW 18.4 mph 24.2 mph N/A Snow Light Snow
8:15 PM 23.0 °F 9.2 °F 20.8 °F 91% 30.48 in 5.0 mi NNW 17.3 mph 20.7 mph N/A Snow Light Snow
8:35 PM 22.8 °F 8.9 °F 20.3 °F 90% 30.50 in 4.0 mi NNW 17.3 mph 26.5 mph N/A Snow Light Snow
8:55 PM 21.9 °F 7.3 °F 19.6 °F 91% 30.51 in 2.0 mi NNW 18.4 mph 25.3 mph N/A Snow Light Snow
9:15 PM 21.6 °F 6.5 °F 19.8 °F 93% 30.52 in 2.0 mi NNW 19.6 mph 25.3 mph N/A Snow Light Snow
9:35 PM 21.2 °F 6.8 °F 19.6 °F 93% 30.53 in 1.5 mi NNW 17.3 mph 21.9 mph N/A Snow Light Snow
9:55 PM 21.2 °F 7.8 °F 19.4 °F 93% 30.54 in 1.2 mi NNW 15.0 mph 21.9 mph N/A Snow Light Snow
10:15 PM 21.2 °F 7.8 °F 19.0 °F 91% 30.55 in 4.0 mi NNW 15.0 mph 24.2 mph N/A Snow Light Snow
10:35 PM 21.2 °F 8.9 °F 18.5 °F 89% 30.55 in 3.0 mi NNW 12.7 mph 25.3 mph N/A Snow Light Snow
10:55 PM 21.2 °F 8.3 °F 18.9 °F 91% 30.56 in 7.0 mi NNW 13.8 mph 20.7 mph N/A Snow Light Snow
11:15 PM 21.2 °F 6.8 °F 18.3 °F 89% 30.57 in 10.0 mi NNW 17.3 mph 23.0 mph N/A   Scattered Clouds
11:35 PM 21.2 °F 8.3 °F 17.8 °F 87% 30.58 in 10.0 mi NNW 13.8 mph 23.0 mph N/A   Mostly Cloudy
11:55 PM 21.0 °F 6.6 °F 17.8 °F 87% 30.58 in 10.0 mi NW 17.3 mph 24.2 mph N/A   Scattered Clouds